Location: Lane
(33.5226°N, 79.8788°W)
Time: 20:42:57
(UTC+00:00)

Courier 1B Rocket - Pass Details

Date: 06 October 2022
Orbit: 920 x 1202 km, 28.3° (Epoch: 01 December)

Event Time Altitude Azimuth Distance (km) Brightness Sun altitude
Rises 21:34:59 0° 229° (SW) 3,978 9.5 15.9°
Reaches altitude 10° 21:38:11 10° 220° (SW) 2,978 8.7 15.3°
Maximum altitude 21:44:28 32° 160° (SSE) 1,749 6.5 14.0°
Drops below altitude 10° 21:50:23 10° 100° (E) 2,799 6.9 12.8°
Sets 21:53:17 0° 91° (E) 3,707 7.4 12.3°
